Harrisburg, IL

2:57 PM CST on December 09, 2019 (GMT -0600)
Harrisburg-Raleigh

Weather History for KHSB - October, 2019

Change the Weather History Date:

Saturday, October 12, 2019

  Actual Average (WUND) Record (WUND)
Temperature  
Mean Temperature 46 °F -  
Max Temperature 59 °F - - (-1)
Min Temperature 33 °F - - (-1)
Degree Days  
Heating Degree Days 19    
Moisture  
Dew Point 30 °F    
Average Humidity 63    
Maximum Humidity 92    
Minimum Humidity 23    
Precipitation  
Precipitation 0.00 in - - ()
Sea Level Pressure  
Sea Level Pressure 30.17 in    
Wind  
Wind Speed 2 mph ()    
Max Wind Speed 9 mph    
Max Gust Speed -    
Visibility 9.9 miles    
Events      
Averages and records for this station are not official NWS values.
T = Trace of Precipitation, MM = Missing Value Source: Averaged Metar Reports

Daily Weather History Graph

Daily Weather History Graph

Search for Another Location

Airport or City:

Astronomy

Oct. 12, 2019 Rise Set
Actual Time 6:59 AM CDT 6:21 PM CDT
Civil Twilight 6:33 AM CDT 6:47 PM CDT
Nautical Twilight 6:02 AM CDT 7:17 PM CDT
Astronomical Twilight 5:32 AM CDT 7:48 PM CDT
Moon 6:14 PM CDT (10/12) 5:39 AM CDT (10/12)
Length of Visible Light 12h 14m
Length of Day
11h 21m
Waxing Gibbous, 99% of the Moon is Illuminated
Oct 12
Waxing Gibbous
Oct 13
Full
Oct 21
Last Quarter
Oct 27
New
Nov 4
First Quarter

Hourly Weather History & Observations

Time (CDT) Temp. Windchill Dew Point Humidity Pressure Visibility Wind Dir Wind Speed Gust Speed Precip Events Conditions
12:15 AM 37.9 °F - 35.1 °F 89% 30.22 in 10.0 mi Calm Calm - N/A   Clear
12:35 AM 37.6 °F - 34.7 °F 89% 30.22 in 10.0 mi Calm Calm - N/A   Clear
12:55 AM 37.8 °F - 34.9 °F 89% 30.21 in 10.0 mi Calm Calm - N/A   Clear
1:15 AM 37.4 °F - 34.3 °F 89% 30.22 in 10.0 mi Calm Calm - N/A   Clear
1:35 AM 36.0 °F - 33.1 °F 89% 30.22 in 10.0 mi Calm Calm - N/A   Clear
1:55 AM 36.1 °F - 33.1 °F 89% 30.22 in 10.0 mi Calm Calm - N/A   Clear
2:15 AM 35.2 °F 31.2 °F 32.4 °F 89% 30.22 in 10.0 mi NW 4.6 mph - N/A   Clear
2:35 AM 36.7 °F 32.9 °F 33.8 °F 89% 30.21 in 10.0 mi WNW 4.6 mph - N/A   Clear
2:55 AM 36.1 °F 33.5 °F 33.3 °F 89% 30.20 in 10.0 mi NW 3.5 mph - N/A   Clear
3:15 AM 36.7 °F - 33.6 °F 89% 30.21 in 10.0 mi Calm Calm - N/A   Clear
3:35 AM 36.5 °F 32.7 °F 33.4 °F 89% 30.21 in 10.0 mi WNW 4.6 mph - N/A   Clear
3:55 AM 37.4 °F 32.8 °F 34.0 °F 87% 30.21 in 10.0 mi WNW 5.8 mph - N/A   Clear
4:15 AM 37.8 °F 34.2 °F 34.0 °F 86% 30.21 in 10.0 mi WNW 4.6 mph - N/A   Clear
4:35 AM 36.7 °F 34.1 °F 33.8 °F 89% 30.22 in 10.0 mi WNW 3.5 mph - N/A   Clear
4:55 AM 36.1 °F - 33.3 °F 89% 30.22 in 10.0 mi Calm Calm - N/A   Clear
5:15 AM 36.1 °F - 33.3 °F 89% 30.23 in 10.0 mi Calm Calm - N/A   Clear
5:35 AM 35.1 °F - 32.2 °F 89% 30.23 in 10.0 mi Calm Calm - N/A   Clear
5:55 AM 34.9 °F - 32.0 °F 89% 30.24 in 10.0 mi Calm Calm - N/A   Clear
6:15 AM 34.3 °F - 32.0 °F 91% 30.24 in 10.0 mi Calm Calm - N/A   Clear
6:35 AM 33.8 °F - 31.6 °F 92% 30.24 in 10.0 mi Calm Calm - N/A   Clear
6:55 AM 35.1 °F - 32.2 °F 89% 30.24 in 10.0 mi Calm Calm - N/A   Clear
7:15 AM 34.5 °F - 32.0 °F 90% 30.24 in 10.0 mi Calm Calm - N/A   Clear
7:55 AM 35.4 °F - 32.4 °F 89% 30.24 in 5.0 mi Calm Calm - N/A   Clear
8:15 AM 36.7 °F - 33.8 °F 89% 30.24 in 5.0 mi Calm Calm - N/A   Clear
8:35 AM 38.7 °F - 35.8 °F 89% 30.24 in 10.0 mi Calm Calm - N/A   Clear
8:55 AM 40.6 °F - 37.6 °F 89% 30.24 in 10.0 mi Calm Calm - N/A   Clear
9:15 AM 42.8 °F - 39.0 °F 86% 30.24 in 10.0 mi Calm Calm - N/A   Clear
9:35 AM 44.4 °F - 36.9 °F 75% 30.24 in 10.0 mi Calm Calm - N/A   Clear
9:55 AM 46.4 °F 44.3 °F 32.2 °F 58% 30.24 in 10.0 mi SW 4.6 mph - N/A   Clear
10:15 AM 48.2 °F - 28.9 °F 47% 30.25 in 10.0 mi WSW 4.6 mph - N/A   Clear
10:35 AM 48.6 °F - 26.1 °F 42% 30.25 in 10.0 mi WSW 4.6 mph - N/A   Clear
10:55 AM 48.9 °F - 23.9 °F 38% 30.24 in 10.0 mi West 4.6 mph - N/A   Clear
11:15 AM 50.4 °F - 26.8 °F 40% 30.24 in 10.0 mi West 4.6 mph - N/A   Clear
11:35 AM 50.7 °F - 23.9 °F 35% 30.24 in 10.0 mi WSW 5.8 mph - N/A   Clear
11:55 AM 51.8 °F - 23.7 °F 33% 30.23 in 10.0 mi WSW 3.5 mph - N/A   Clear
12:15 PM 53.2 °F - 25.5 °F 34% 30.23 in 10.0 mi West 6.9 mph - N/A   Clear
12:35 PM 52.7 °F - 22.6 °F 31% 30.22 in 10.0 mi SW 5.8 mph - N/A   Clear
12:55 PM 54.5 °F - 22.3 °F 29% 30.20 in 10.0 mi WNW 9.2 mph - N/A   Clear
1:15 PM 54.5 °F - 22.8 °F 29% 30.19 in 10.0 mi Calm Calm - N/A   Clear
1:35 PM 54.7 °F - 20.7 °F 27% 30.17 in 10.0 mi Calm Calm - N/A   Clear
1:55 PM 55.8 °F - 19.2 °F 24% 30.17 in 10.0 mi Calm Calm - N/A   Clear
2:15 PM 56.7 °F - 21.2 °F 25% 30.15 in 10.0 mi WSW 5.8 mph - N/A   Clear
2:35 PM 57.2 °F - 20.1 °F 24% 30.14 in 10.0 mi SSW 3.5 mph - N/A   Clear
2:55 PM 58.3 °F - 23.2 °F 26% 30.13 in 10.0 mi SSW 5.8 mph - N/A   Clear
3:15 PM 58.3 °F - 20.8 °F 23% 30.12 in 10.0 mi SW 6.9 mph - N/A   Clear
3:35 PM 58.1 °F - 21.6 °F 24% 30.11 in 10.0 mi Calm Calm - N/A   Clear
3:55 PM 59.0 °F - 21.0 °F 23% 30.11 in 10.0 mi South 8.1 mph - N/A   Clear
4:15 PM 59.2 °F - 21.0 °F 23% 30.11 in 10.0 mi Calm Calm - N/A   Clear
4:35 PM 59.2 °F - 22.8 °F 25% 30.09 in 10.0 mi SW 9.2 mph - N/A   Clear
4:55 PM 59.0 °F - 23.4 °F 25% 30.09 in 10.0 mi SSW 6.9 mph - N/A   Clear
5:15 PM 58.3 °F - 22.3 °F 25% 30.09 in 10.0 mi SSW 6.9 mph - N/A   Clear
5:35 PM 57.6 °F - 24.1 °F 28% 30.09 in 10.0 mi SSW 9.2 mph - N/A   Clear
5:55 PM 56.5 °F - 24.6 °F 29% 30.09 in 10.0 mi SSW 6.9 mph - N/A   Clear
6:15 PM 54.7 °F - 26.6 °F 34% 30.08 in 10.0 mi SSW 6.9 mph - N/A   Clear
6:35 PM 52.7 °F - 27.5 °F 38% 30.08 in 10.0 mi South 6.9 mph - N/A   Clear
6:55 PM 50.0 °F - 29.3 °F 45% 30.07 in 10.0 mi SSW 4.6 mph - N/A   Clear
7:15 PM 49.5 °F - 29.3 °F 46% 30.08 in 10.0 mi SSW 4.6 mph - N/A   Clear
7:35 PM 48.6 °F - 29.7 °F 48% 30.08 in 10.0 mi South 5.8 mph - N/A   Clear
7:55 PM 45.3 °F - 32.0 °F 60% 30.08 in 10.0 mi Calm Calm - N/A   Clear
8:15 PM 45.9 °F - 32.0 °F 58% 30.08 in 10.0 mi Calm Calm - N/A   Clear
8:35 PM 46.2 °F - 32.0 °F 58% 30.08 in 10.0 mi Calm Calm - N/A   Clear
8:55 PM 43.0 °F - 33.8 °F 70% 30.08 in 10.0 mi Calm Calm - N/A   Clear
9:15 PM 40.5 °F - 33.8 °F 77% 30.08 in 10.0 mi Calm Calm - N/A   Clear
9:35 PM 42.1 °F - 34.9 °F 76% 30.07 in 10.0 mi Calm Calm - N/A   Clear
9:55 PM 41.0 °F - 35.2 °F 80% 30.07 in 10.0 mi Calm Calm - N/A   Clear
10:15 PM 40.5 °F - 34.9 °F 80% 30.07 in 10.0 mi Calm Calm - N/A   Clear
10:35 PM 40.3 °F - 34.7 °F 80% 30.07 in 10.0 mi Calm Calm - N/A   Clear
10:55 PM 38.5 °F - 35.2 °F 88% 30.06 in 10.0 mi Calm Calm - N/A   Clear
11:15 PM 39.2 °F - 35.4 °F 86% 30.06 in 10.0 mi Calm Calm - N/A   Clear
11:35 PM 36.9 °F - 34.0 °F 89% 30.06 in 10.0 mi Calm Calm - N/A   Clear
11:55 PM 37.2 °F - 34.3 °F 89% 30.06 in 10.0 mi Calm Calm - N/A   Clear